EXPRESS-AM5

Last updated on Thu Nov 21 2024 00:02:42 GMT+0000 (Coordinated Universal Time)

1 39487U 13077A 24324.89425139 -.00000278 00000+0 00000+0 0 9991 2 39487 0.0170 287.5910 0002217 349.0216 244.7794 1.00272313 40606
UTC large
Height (km)
Speed (km/s)
/
Latitude / Longitude
Inclination (degrees)
Orbital Period (minutes)
Azimuth
Elevation
Range (km)
Doppler Factor

Next 0 passes for location: London (51.5072 / 0.1276)

Sorry there are no passes over London.